Terug naar catalogus

STARLINK-37435

ActiefCommunicatieVLEO
NORAD 69265·PAYLOAD·🇺🇸 United States

Gelanceerd May 29, 2026 vanaf Cape Canaveral Space Force Station

Loading…

Volgende Passages (komende 24 uur)

TLE

VersSource: CelesTrak SupGP

Epoch: Sep 15, 2026, 09:40 UTC

1 69265C 26117AD  26258.40326389 -.00007932  00000+0 -23434-3 0  2582
2 69265  53.1562 177.6488 0001339  81.7647 262.2501 15.34396323    10

Volg STARLINK-37435 in realtime met AllMySat

Download on the App Store